2021-058A (48871 NORAD) Tracking and Keplerian Element Data

This shows tracking and keplerian element data for the satellite.

Feedback or suggestion? Click here.




ElementValue
Catalog48871
Name2021-058A
Epoch Orbit1633
Epoch Day288.00155439
Epoch Year2021
RAAN176.4684
Inclination60.6674
Eccentricity0.0043908
Argument of Perigee257.0391
Mean Anonmoly102.58
Mean Motion15.3579908
Decay Rate5.978E-05
L11 48871U 21058A 21288.00155439 .00005978 00000-0 17393-3 0 9997
L22 48871 60.6674 176.4684 0043908 257.0391 102.5800 15.35799080 16332

Live tracking and technical data element details for 2021-058A (NORAD 48871). 2021-058A can be tracked NOW for your location showing map with azimuth and elevation plus other details from your city location.

Track the satellite on the map from your city or location and see movement details for azimuth, elevation, latitude, longitude, range, height, and movement on the map or in text.







IsCatalogInMostPopularTable: catalog: 48871, numindb: 22
Update: records affected: 1



GetName: 48871 2021-058A

Hit Count: updated at: Tue, 19 Oct 2021 09:22:23 GMT